Notices

What's New in latest Release from April 7th, 2021:

- Updated Glossary, including Speed of Maximum Gust, and Total Hourly Precipitation

- Updated national and regional climate services offices contacts and prices information

- Addition of station inventory lists for 1981-2010, 1971-2000, and 1961-1990 Normals.

If you haven't already, please take our survey and provide feedback about our website: https://eccc.sondage-survey.ca/f/LanguageSelection.aspx?s=442ca660-fcf1-47c0-95a9-59707d6fd709

Hourly Data Report for February 17, 2003

TORONTO CITY
ONTARIO

43°40'00.000" N
79°24'00.000" W
112.50 m
6158355
71508
XTO

Download Data

Hourly Data (February 2003)
Hourly Data Report for February 17, 2003
TIME
LST
Temp Definition
°C
Dew Point Definition
°C
Rel Hum Definition
%
Precip. Amount Definition
mm

Wind Dir Definition
10's deg

Wind Spd Definition
km/h
Visibility Definition
km
Stn Press Definition
kPa
Hmdx Definition


Wind Chill Definition


Weather Definition


00:00 -13.0 -17.6 68     0 LegendMM 101.79     LegendNANA
01:00
02:00 -13.0 -16.7 74     0 LegendMM 101.69     LegendNANA
03:00 -13.0 -16.6 74     0 LegendMM 101.58     LegendNANA
04:00 -13.0 -17.1 71     0 LegendMM 101.48     LegendNANA
05:00 -13.0 -17.4 70     0 LegendMM 101.47     LegendNANA
06:00 -12.5 -16.6 71     0 LegendMM 101.39     LegendNANA
07:00 -11.8 -15.7 73     0 LegendMM 101.32     LegendNANA
08:00 -11.8 -16.4 69     0 LegendMM 101.29     LegendNANA
09:00 -10.5 -14.5 72     0 LegendMM 101.30     LegendNANA
10:00 -9.4 -14.5 66     0 LegendMM 101.25     LegendNANA
11:00 -8.7 -14.8 61     0 LegendMM 101.29     LegendNANA
12:00 -8.1 -14.0 62     0 LegendMM 101.16     LegendNANA
13:00 -7.3 -12.5 66     0 LegendMM 101.05     LegendNANA
14:00 -6.6 -10.7 73     0 LegendMM 100.97     LegendNANA
15:00
16:00 -6.3 -7.5 91     0 LegendMM 100.82     LegendNANA
17:00 -6.3 -7.6 90     0 LegendMM 100.78     LegendNANA
18:00 -6.0 -7.2 91     0 LegendMM 100.74     LegendNANA
19:00 -5.0 -5.9 93     0 LegendMM 100.72     LegendNANA
20:00 -5.4 -6.3 93     0 LegendMM 100.63     LegendNANA
21:00
22:00 -4.7 -5.7 93     0 LegendMM 100.55     LegendNANA
23:00 -4.3 -5.5 91     0 LegendMM 100.49     LegendNANA

Notes on Data Quality.

Legend

  • E = Estimated
  • M = Missing
  • NA = Not Available*
  • [empty] = Indicates an unobserved value
Date modified: